Home   Weather   Carrollton   Past weeks

Flag for USA Past Weather in Carrollton, Texas, USA — Yesterday and Last 2 Weeks

Now
62 °F

Passing clouds.


Feels Like: 62 °F
Forecast: 45 / 67 °F
Wind: 14 mph from Southeast

Location: Dallas Love Field

Current Time: Jan 19, 2017 at 1:43:12 pm

Latest Report: Jan 19, 2017 at 12:53 pm


Visibility: 10 mi

Pressure: 29.71 "Hg

Humidity: 65%

Dew Point: 50 °F

Location of CarrolltonLocation

Past Weather in Carrollton — Graph

°F

Carrollton Temperature Yesterday

Maximum temperature yesterday: 54 °F (at 6:53 pm)
Minimum temperature yesterday: 47 °F (at 12:56 am)
Average temperature yesterday: 50 °F

High & Low Weather Summary for the Past Weeks

 TemperatureHumidityPressure
High78 °F (Jan 10, 2:53 pm)100% (Jan 15, 1:53 am)30.81 "Hg (Jan 15, 1:53 am)
Low16 °F (Jan 7, 6:53 am)19% (Jan 8, 3:53 pm)29.77 "Hg (Jan 19, 12:09 pm)
Average48 °F73%30.17 "Hg
* Reported Jan 4 12:53 pm — Jan 19 12:09 pm, Carrollton, Weather by CustomWeather, © 2017

Note: Actual official high and low records may vary slightly from our data, if they occured in-between our weather recording intervals... More about our weather records

Advertising

Carrollton Weather History for the Previous 24 Hours

Scroll right to see more
 ConditionsComfort  
Time TempWeatherWind HumidityBarometerVisibility
12:09 pm
Thu, Jan 19
58 °FScattered clouds.10 mph75%29.77 "Hg10 mi
11:53 am57 °FPartly sunny.12 mph74%29.77 "Hg10 mi
10:53 am53 °FLow clouds.8 mph83%29.82 "Hg10 mi
9:53 am51 °FFog.9 mph89%29.83 "Hg6 mi
8:53 am50 °FFog.8 mph93%29.83 "Hg4 mi
7:53 am51 °FFog.8 mph89%29.83 "Hg4 mi
6:53 am50 °FFog.6 mph93%29.83 "Hg6 mi
5:53 am49 °FLow clouds.5 mph93%29.85 "Hg7 mi
5:03 am50 °FFog.3 mph89%29.88 "Hg4 mi
4:53 am49 °FFog.3 mph93%29.88 "Hg5 mi
3:59 am50 °FMostly cloudy.7 mph93%29.91 "Hg9 mi
3:34 am51 °FMostly cloudy.3 mph89%29.92 "Hg10 mi
2:53 am52 °FMostly cloudy.5 mph86%29.91 "Hg10 mi
1:53 am53 °FMostly cloudy.No wind86%29.93 "Hg10 mi
1:31 am53 °FMostly cloudy.5 mph89%29.95 "Hg9 mi
12:53 am53 °FLow clouds.No wind89%29.95 "Hg8 mi
11:53 pm
Wed, Jan 18
52 °FMostly cloudy.5 mph93%29.96 "Hg7 mi
10:53 pm52 °FMostly cloudy.3 mph93%29.98 "Hg9 mi
9:53 pm53 °FMostly cloudy.7 mph89%29.99 "Hg10 mi
9:26 pm53 °FMostly cloudy.6 mph89%29.99 "Hg10 mi
8:53 pm53 °FMostly cloudy.No wind86%29.99 "Hg10 mi
7:53 pm54 °FMostly cloudy.No wind83%29.99 "Hg10 mi
6:53 pm54 °FMostly cloudy.No wind83%29.99 "Hg10 mi
5:53 pm53 °FMostly cloudy.5 mph86%30.00 "Hg8 mi
5:01 pm53 °FMostly cloudy.6 mph86%30.01 "Hg8 mi
4:41 pm53 °FCloudy.5 mph86%30.01 "Hg8 mi
4:10 pm53 °FOvercast.5 mph86%30.03 "Hg8 mi
3:53 pm53 °FLow clouds.5 mph86%30.03 "Hg8 mi
2:53 pm52 °FLow clouds.8 mph86%30.04 "Hg7 mi
1:53 pm50 °FLow clouds.7 mph93%30.04 "Hg7 mi
Weather by CustomWeather, © 2017

See weather overviewHow to use our weather pages